Regional Weather Roundup
Issued by NWS

Home | Current Version | Previous Version | Text Only | Print | Product List | Glossary On
Versions: 1 2 3 4 5 6 7 8 9 10 11 12 13 14 15 16 17 18 19 20 21 22 23 24 25 26 27 28 29 30 31 32 33 34 35 36 37 38 39 40 41 42 43 44 45 46 47 48 49 50
000
ASUS43 KBIS 252102
RWRND

NORTH DAKOTA REGIONAL WEATHER ROUNDUP
NATIONAL WEATHER SERVICE BISMARCK ND
400 PM CDT SUN SEP 25 2016

NOTE: "FAIR" INDICATES FEW OR NO CLOUDS BELOW 12,000 FEET WITH NO
SIGNIFICANT WEATHER AND/OR OBSTRUCTIONS TO VISIBILITY.


NDZ001>003-009>011-017-252200-
NORTHWEST NORTH DAKOTA

CITY           SKY/WX    TMP DP  RH WIND       PRES   REMARKS
WILLISTON      SUNNY     64  32  30 NW28G37   30.19S
MINOT          MOSUNNY   63  34  33 W38G47    30.05R
MINOT AFB      SUNNY     61  36  39 NW30G40   30.02S
$$

NDZ018>021-031>035-040>046-252200-
SOUTHWEST NORTH DAKOTA

CITY           SKY/WX    TMP DP  RH WIND       PRES   REMARKS
BISMARCK       MOSUNNY   65  33  30 NW24G39   30.12R
DICKINSON      SUNNY     61  28  28 NW25G41   30.18S
GARRISON         N/A     62  34  35 NW31G40   30.08S
HETTINGER ARPT MOSUNNY   63  31  30 NW26G39   30.23S
$$

NDZ004>008-012>016-024-026-027-054-252200-
NORTHEAST NORTH DAKOTA

CITY           SKY/WX    TMP DP  RH WIND       PRES   REMARKS
GRAND FORKS    LGT RAIN  55  49  80 NW24G36   29.85R
GRND FRKS AFB  LGT RAIN  54  48  80 NW22G32   29.87R
DEVILS LAKE    CLOUDY    59  40  49 NW32G44   29.92R
$$

NDZ022-023-025-028>030-036>039-047>053-252200-
SOUTHEAST NORTH DAKOTA

CITY           SKY/WX    TMP DP  RH WIND       PRES   REMARKS
FARGO          LGT RAIN  58  45  62 NW33G40   29.91R
JAMESTOWN      PTSUNNY   62  38  40 NW33G48   29.98R
$$





USA.gov is the U.S. government's official web portal to all federal, state and local government web resources and services.